Wind_Speed
9 14 18 18 22 22 18 17 16 13 12 10 6 3 5 7 10 11 12 12 11 12 13 15 16 17 18 18 17 16 16 17 19 22 19 18 20 22 21 21 19 19 19
11 6 10 13 15 19 19 17 15 11 8 4 2 4 6 8 8 7 8 9 11 13 13 14 14 14 14 15 15 15 14 14 17 21 24 25 23 26 22 21 24 24 22
18 11 10 10 10 14 15 13 11 7 5 5 5 6 6 7 8 9 9 10 12 13 12 13 14 14 14 14 15 15 14 14 13 15 18 21 21 25 24 24 22 21 21
8 12 13 11 10 11 10 9 7 6 6 7 7 8 8 9 9 10 10 11 10 10 11 12 13 15 16 17 17 17 16 16 15 14 14 16 15 17 17 19 23 21 22
23 18 17 16 9 6 6 6 6 6 6 8 8 8 9 9 9 10 10 11 11 10 11 11 13 14 14 16 18 18 18 17 17 16 15 17 17 19 18 18 18 20 18
17 20 24 19 13 8 6 3 3 4 7 7 9 7 9 10 9 9 10 12 12 13 15 15 14 16 16 14 12 14 16 18 17 17 16 16 17 16 18 19 21 24 24
21 18 15 14 10 8 6 6 6 6 6 7 7 11 11 12 12 13 14 14 14 15 16 18 17 17 18 19 17 15 15 15 16 16 18 17 20 19 20 22 20 20 22
17 15 12 14 16 13 8 6 7 8 6 6 9 11 13 15 15 13 12 14 14 15 15 16 17 18 18 19 22 20 18 17 17 17 20 21 20 20 18 19 20 19 18
19 20 16 11 10 10 7 6 6 5 5 5 7 10 13 15 17 17 18 17 18 18 18 20 21 20 21 20 22 23 23 21 18 20 19 21 20 17 16 19 17 17 20
19 16 12 10 10 9 10 10 9 7 6 6 7 10 12 14 17 20 21 21 21 23 22 23 24 25 24 24 23 24 26 26 24 23 23 20 17 16 15 17 17 17 16
18 16 15 14 13 11 10 9 8 7 7 7 9 11 13 17 19 20 20 22 24 26 27 28 27 27 25 25 25 24 25 27 27 26 25 23 19 14 15 16 16 16 16
17 16 12 13 11 7 7 9 9 9 9 11 12 15 17 18 19 21 21 21 23 27 28 30 30 29 27 27 27 25 24 25 26 26 27 25 21 17 14 16 17 16 16
11 14 16 11 12 13 12 10 9 10 14 17 19 20 22 23 25 25 27 28 29 30 29 30 30 29 29 30 28 27 26 25 25 26 26 25 21 19 17 16 15 16 15
13 13 15 14 14 16 13 13 13 17 20 21 23 25 26 27 29 31 31 31 30 31 32 32 31 30 27 24 24 25 23 23 25 24 25 24 22 19 17 16 16 15 16
15 15 15 15 14 15 16 17 19 21 21 21 23 24 26 27 28 27 28 31 31 30 30 29 28 28 31 31 30 26 23 21 22 21 23 22 21 19 18 16 16 16 16
18 16 14 15 16 17 16 16 16 17 18 19 20 22 22 23 25 27 29 29 30 29 28 27 26 27 29 31 32 33 26 23 20 20 23 20 20 19 19 18 17 16 16
18 19 19 18 17 16 16 17 17 17 17 18 20 22 23 24 25 26 27 27 25 26 28 28 27 28 30 31 31 32 31 25 20 18 20 19 18 18 19 18 17 17 17
22 21 19 18 18 18 18 19 19 20 22 22 21 22 22 24 26 27 28 28 29 30 31 31 30 30 30 31 30 30 28 25 20 17 20 15 15 15 15 15 15 15 15
21 20 19 19 19 19 20 21 22 21 21 21 22 22 24 25 26 28 30 32 34 34 34 34 33 32 30 29 29 28 26 24 21 18 14 13 13 13 15 16 15 14 13
22 20 19 20 19 20 20 21 21 21 21 22 24 26 27 28 29 30 31 32 32 32 33 34 35 33 30 29 28 28 26 24 22 21 19 18 14 14 15 14 12 12 11
20 19 19 19 19 20 20 20 20 20 21 22 24 25 28 29 30 31 31 31 32 32 33 34 35 33 31 29 28 28 27 26 24 23 23 20 18 16 13 11 9 7 7
19 19 18 19 19 20 19 19 19 20 22 24 25 26 28 29 30 30 31 31 31 32 32 33 34 34 32 30 29 28 27 26 25 24 23 22 19 16 13 10 4 3 6
18 19 19 19 19 18 19 19 21 22 23 25 26 28 29 29 30 31 31 31 32 32 32 32 33 34 32 28 26 27 28 27 26 25 25 22 20 16 12 9 4 2 4
18 18 18 19 18 19 20 21 22 23 25 26 27 28 29 30 31 31 31 31 32 32 32 32 33 34 32 28 27 26 26 25 24 23 22 20 17 14 11 6 3 2 3
18 17 18 18 20 21 22 23 23 25 26 27 27 28 29 30 31 32 32 32 33 33 33 33 33 34 31 27 25 26 26 24 22 21 19 17 15 12 10 5 3 4 5
17 19 19 20 21 23 23 23 24 25 26 26 27 29 30 31 32 32 34 34 34 34 34 34 34 32 29 27 25 26 26 25 22 19 19 16 14 11 8 5 4 5 5
Wind_Direction
156 140 152 141 152 150 147 150 168 160 159 165 174 223 283 293 287 295 299 298 305 314 313 312 310 309 309 310 312 305 293 294 301 297 304 304 311 305 293 297 294 286 281
94 92 109 131 131 134 131 124 128 135 130 108 29 333 312 312 311 324 333 339 336 336 333 328 329 330 328 324 321 320 314 311 305 303 297 294 290 290 294 294 285 284 283
108 124 138 135 133 116 115 115 103 81 53 26 2 343 345 345 344 3 355 354 352 349 345 343 343 342 340 341 339 336 334 330 325 318 310 302 294 286 281 281 281 277 273
161 154 139 135 128 113 104 95 85 57 29 17 10 9 6 4 4 9 4 4 4 358 356 352 349 345 344 343 343 340 340 338 336 334 327 322 318 309 306 299 285 282 286
187 173 171 166 148 135 105 93 75 56 25 17 17 15 16 4 11 16 7 3 0 354 346 342 340 338 335 330 330 329 330 331 331 333 332 332 336 336 338 335 328 319 305
175 175 173 169 167 161 149 137 77 36 10 16 355 353 15 6 9 0 353 348 341 333 328 323 324 322 320 318 315 319 322 324 325 325 323 317 316 316 318 322 323 326 328
157 140 144 151 149 125 109 108 89 58 10 354 348 352 353 357 360 349 341 333 332 328 325 324 327 328 322 317 315 310 306 307 309 310 309 313 311 315 314 312 310 308 304
165 160 175 163 154 152 151 97 50 41 32 358 348 352 359 352 356 353 345 338 337 330 329 328 327 326 325 318 319 317 310 306 302 299 298 297 299 304 306 305 314 310 314
168 159 157 160 143 127 123 71 50 29 13 14 16 12 4 356 351 343 342 342 338 335 335 338 331 326 326 332 323 318 312 311 311 304 295 287 288 290 293 295 298 304 310
164 156 142 120 88 76 88 78 70 52 46 46 16 2 3 357 347 349 346 346 339 332 332 331 330 329 328 329 324 318 312 313 310 310 308 303 283 280 279 277 284 285 297
147 139 130 116 97 83 65 63 54 51 42 30 17 11 5 357 352 351 350 344 339 332 331 329 329 328 325 322 319 312 306 305 303 305 306 307 305 285 278 270 269 269 274
131 122 102 99 87 83 69 60 53 41 22 24 19 11 5 359 353 350 348 345 339 332 332 327 321 318 317 315 315 311 304 299 299 298 299 301 303 298 287 271 264 263 263
116 111 103 101 106 95 81 62 45 36 31 25 21 16 10 6 1 360 356 351 345 341 338 333 327 322 316 308 305 304 305 299 299 299 297 298 300 299 292 280 268 261 257
100 93 100 97 88 74 64 53 47 41 34 29 24 18 11 4 1 358 351 348 344 341 339 335 331 329 329 326 313 301 302 301 297 306 296 294 295 291 286 278 271 267 257
111 105 94 85 71 67 63 57 46 42 31 26 24 14 8 4 1 353 350 349 347 345 340 336 337 341 344 344 342 334 322 309 304 311 309 297 291 288 284 279 270 266 262
110 102 90 81 77 74 71 62 52 43 30 26 22 15 9 2 357 356 355 352 349 345 343 343 344 345 345 344 343 341 332 323 313 306 307 304 294 288 285 280 274 267 264
108 101 98 94 92 84 75 66 58 45 33 27 23 17 12 7 3 2 1 359 355 353 353 352 349 345 344 342 341 342 340 333 321 310 314 306 302 294 288 287 280 270 264
101 98 95 89 79 72 64 57 50 42 35 31 27 20 16 12 10 7 6 2 4 4 3 359 353 349 345 344 344 344 345 344 359 354 329 321 310 301 295 286 284 273 266
99 95 89 82 75 69 63 57 50 42 36 28 23 23 15 11 12 12 9 9 6 4 3 1 358 353 348 348 347 348 350 351 359 4 354 344 337 323 305 294 285 272 264
95 89 85 80 74 66 60 53 47 41 34 27 24 19 13 12 11 11 10 7 5 2 1 0 359 356 352 353 351 352 353 357 0 3 359 354 344 340 323 302 289 271 254
96 92 82 77 71 63 56 50 44 39 35 30 28 23 17 15 14 12 10 8 4 1 360 360 359 357 357 356 354 354 356 358 359 356 354 353 352 348 341 322 298 257 227
93 87 83 74 66 60 55 50 44 38 34 30 26 21 18 16 13 11 10 7 5 4 0 359 359 358 359 357 355 354 356 356 357 354 352 353 354 354 357 345 312 227 202
90 81 75 70 64 59 53 48 42 36 31 26 22 18 16 14 12 11 9 7 5 3 2 0 359 359 359 358 358 356 354 352 352 350 350 351 355 357 4 1 355 156 170
82 80 75 69 63 56 50 44 38 33 29 25 22 18 15 13 12 11 8 7 7 6 3 2 360 358 358 358 359 359 355 351 349 348 348 349 353 359 7 2 28 111 144
82 77 74 69 61 53 46 40 35 31 28 24 21 18 16 14 12 11 9 9 8 6 6 5 2 359 358 359 2 1 358 356 354 351 352 353 356 3 7 9 52 109 120
83 76 69 64 57 49 43 38 33 29 27 23 20 18 15 14 14 12 11 10 8 8 8 6 5 3 359 5 5 5 5 4 2 0 357 359 6 15 19 31 93 100 115
Height
1414 1413 1420 1423 1426 1425 1428 1429 1434 1440 1444 1446 1447 1449 1450 1450 1449 1447 1446 1446 1445 1443 1442 1441 1440 1438 1437 1435 1433 1431 1429 1426 1422 1418 1418 1417 1414 1412 1410 1408 1407 1406 1407
1412 1415 1426 1435 1434 1429 1432 1434 1439 1443 1446 1447 1446 1446 1449 1447 1448 1441 1441 1440 1439 1438 1437 1437 1436 1434 1432 1431 1428 1426 1424 1421 1417 1413 1412 1410 1410 1408 1404 1402 1402 1400 1400
1406 1422 1430 1436 1439 1436 1432 1437 1438 1443 1446 1446 1445 1447 1446 1446 1446 1438 1438 1436 1434 1435 1434 1434 1432 1430 1429 1427 1425 1423 1421 1417 1413 1409 1406 1404 1403 1399 1397 1396 1396 1393 1392
1415 1426 1434 1438 1439 1436 1439 1437 1438 1440 1444 1446 1445 1446 1446 1445 1441 1439 1439 1436 1433 1433 1433 1432 1430 1428 1426 1424 1422 1419 1417 1414 1410 1407 1404 1402 1398 1395 1392 1388 1388 1387 1385
1422 1420 1424 1434 1433 1436 1435 1437 1437 1440 1442 1444 1446 1446 1444 1444 1441 1438 1438 1435 1433 1434 1433 1430 1429 1427 1424 1421 1418 1417 1414 1411 1408 1404 1402 1400 1397 1392 1389 1385 1384 1380 1379
1418 1419 1419 1429 1430 1433 1434 1437 1437 1434 1438 1442 1443 1447 1440 1444 1442 1437 1436 1434 1433 1431 1431 1428 1425 1423 1423 1420 1417 1415 1412 1407 1405 1401 1400 1398 1395 1392 1388 1385 1383 1379 1375
1422 1427 1430 1427 1429 1432 1437 1435 1434 1433 1436 1440 1446 1442 1440 1441 1440 1437 1434 1434 1430 1430 1428 1426 1422 1419 1419 1416 1413 1411 1410 1406 1402 1399 1396 1393 1390 1388 1385 1382 1380 1378 1374
1424 1423 1426 1432 1426 1428 1436 1432 1432 1432 1438 1441 1444 1445 1438 1438 1437 1433 1433 1433 1428 1429 1426 1423 1419 1416 1414 1411 1408 1405 1404 1402 1399 1396 1392 1389 1387 1384 1383 1380 1376 1373 1370
1423 1427 1432 1435 1430 1425 1430 1431 1432 1436 1440 1442 1444 1441 1436 1436 1435 1432 1431 1429 1427 1427 1424 1419 1417 1413 1411 1407 1404 1401 1398 1395 1394 1391 1388 1384 1382 1380 1378 1376 1374 1371 1366
1425 1427 1431 1432 1429 1434 1429 1430 1435 1438 1442 1442 1441 1438 1434 1436 1433 1431 1431 1427 1424 1424 1419 1416 1414 1409 1406 1404 1401 1398 1393 1389 1386 1383 1381 1377 1375 1374 1373 1371 1369 1366 1364
1427 1429 1428 1429 1429 1434 1437 1435 1440 1442 1443 1442 1440 1438 1435 1432 1432 1432 1430 1427 1423 1419 1414 1410 1409 1405 1402 1400 1397 1393 1388 1384 1379 1376 1373 1370 1368 1367 1365 1364 1363 1361 1360
1429 1429 1434 1429 1431 1434 1438 1443 1443 1443 1447 1443 1437 1436 1434 1434 1433 1431 1428 1426 1422 1416 1409 1406 1403 1399 1397 1394 1391 1386 1381 1377 1373 1370 1366 1363 1361 1359 1358 1357 1357 1356 1354
1439 1435 1428 1434 1435 1437 1436 1444 1445 1446 1442 1441 1437 1436 1436 1434 1431 1428 1425 1421 1417 1412 1408 1402 1399 1394 1389 1386 1383 1379 1374 1370 1366 1363 1360 1357 1355 1353 1351 1350 1350 1350 1348
1439 1440 1438 1439 1441 1439 1442 1445 1447 1446 1442 1440 1438 1437 1435 1433 1429 1425 1422 1417 1414 1409 1402 1397 1393 1389 1384 1380 1374 1370 1366 1363 1359 1356 1354 1351 1349 1347 1346 1345 1344 1344 1343
1438 1444 1447 1445 1444 1443 1446 1448 1448 1446 1445 1443 1440 1437 1435 1433 1429 1427 1422 1415 1410 1406 1400 1395 1389 1384 1378 1373 1369 1364 1359 1356 1352 1350 1347 1344 1343 1342 1340 1340 1338 1338 1337
1442 1444 1446 1448 1449 1450 1451 1451 1451 1449 1448 1446 1442 1440 1438 1436 1433 1427 1421 1415 1410 1405 1400 1393 1388 1384 1378 1372 1366 1359 1354 1349 1346 1344 1341 1339 1337 1336 1334 1334 1333 1332 1332
1445 1446 1450 1452 1455 1455 1455 1454 1453 1452 1449 1447 1444 1442 1438 1438 1433 1426 1421 1416 1409 1405 1399 1393 1387 1382 1376 1370 1363 1357 1350 1345 1341 1338 1336 1334 1332 1330 1329 1328 1327 1326 1326
1449 1452 1456 1457 1457 1457 1456 1455 1453 1452 1450 1449 1447 1444 1441 1437 1431 1426 1420 1416 1409 1403 1398 1392 1386 1380 1373 1367 1361 1354 1348 1342 1336 1333 1331 1329 1327 1325 1323 1322 1322 1321 1321
1456 1459 1459 1459 1459 1459 1458 1457 1454 1454 1453 1453 1449 1446 1443 1437 1430 1425 1419 1413 1408 1402 1397 1391 1385 1378 1371 1365 1359 1353 1347 1342 1336 1332 1329 1326 1324 1321 1319 1318 1317 1316 1317
1460 1462 1462 1461 1463 1462 1461 1458 1459 1458 1457 1454 1449 1446 1443 1436 1430 1423 1419 1415 1410 1404 1398 1391 1384 1377 1370 1363 1357 1351 1346 1340 1335 1331 1328 1324 1321 1318 1316 1313 1312 1312 1313
1465 1467 1466 1467 1466 1465 1464 1463 1463 1462 1460 1457 1451 1447 1441 1436 1431 1427 1421 1416 1410 1404 1397 1391 1384 1377 1370 1363 1357 1351 1345 1340 1336 1331 1327 1323 1320 1316 1313 1311 1309 1309 1310
1470 1470 1472 1471 1469 1467 1469 1467 1466 1465 1462 1456 1452 1449 1442 1439 1434 1429 1423 1417 1411 1405 1398 1391 1384 1377 1369 1362 1356 1350 1345 1340 1335 1331 1326 1322 1318 1315 1311 1309 1308 1308 1309
1475 1474 1475 1474 1473 1474 1472 1471 1469 1466 1462 1457 1452 1449 1445 1441 1435 1429 1423 1418 1411 1405 1398 1391 1384 1377 1370 1363 1357 1351 1345 1339 1334 1330 1325 1321 1318 1314 1311 1310 1309 1309 1310
1478 1480 1480 1477 1478 1477 1476 1472 1470 1467 1462 1459 1455 1453 1448 1442 1436 1430 1425 1418 1412 1405 1398 1391 1384 1376 1369 1363 1357 1351 1346 1340 1334 1330 1325 1321 1318 1315 1312 1312 1311 1311 1311
1484 1484 1483 1483 1480 1479 1477 1474 1472 1468 1465 1462 1459 1455 1450 1444 1438 1432 1426 1419 1412 1405 1398 1391 1383 1376 1369 1363 1357 1351 1345 1340 1335 1330 1326 1322 1319 1316 1314 1313 1313 1313 1313
1488 1487 1486 1485 1482 1479 1478 1477 1475 1472 1469 1466 1462 1457 1451 1446 1440 1433 1426 1419 1412 1406 1399 1391 1384 1377 1369 1362 1356 1351 1345 1340 1335 1331 1326 1323 1320 1317 1316 1315 1315 1315 1315